User: anonymous   Login
Location: Huntsville
(41.2590°N, 111.7678°W)
Time: 08:08:45
(UTC+00:00)
Language:

Envisat - Orbit

View from above orbital plane
View from above orbital plane
View from above satellite
View from above satellite

Ground track
Ground track

The orbit data is extracted from the following two-line orbital elements,

1 27386U 02009A   22018.93261312  .00000095  00000-0  44816-4 0  9998
2 27386  98.1680   7.1864 0001187  86.6836 325.9428 14.38069473 41979
Epoch (UTC): 18 January 2022 22:22:57
Eccentricity: 0.0001187
inclination: 98.1680°
perigee height: 764 km
apogee height: 766 km
right ascension of ascending node: 7.1864°
argument of perigee: 86.6836°
revolutions per day: 14.38069473
mean anomaly at epoch: 325.9428°
orbit number at epoch: 4197

The dashed part of the orbit path shows where the satellite is in the earth's shadow,  

DLR